Location: Kuppenheim
(48.8299°N, 8.2568°E)
Time: 08:21:43
(UTC+00:00)

Envisat - Pass Details

Date: 02 December 2022
Orbit: 763 x 765 km, 98.2° (Epoch: 04 February)

Event Time Altitude Azimuth Distance (km) Brightness Sun altitude
Rises 03:16:48 0° 18° (NNE) 3,246 6.5 -35.8°
Reaches altitude 10° 03:19:13 10° 25° (NNE) 2,315 5.8 -35.4°
Enters shadow 03:21:14 23° 36° (NE) 1,599 4.9 -35.1°
